Miscellaneous Hydrologic Data Report
Issued by NWS (Baltimore/Washington) Sterling, VA
1 of 54 available versions  First Miscellaneous Hydrologic Data Report Previous Miscellaneous Hydrologic Data Report  Print this page Close this Window


000
ASUS41 KLWX 030210
RWRLWX

REGIONAL WEATHER ROUNDUP
NATIONAL WEATHER SERVICE BALTIMORE MD/WASHINGTON DC
1000 PM EDT TUE SEP 02 2014

Note: "FAIR" indicates few or no clouds below 12,000 feet
with no significant weather and/or obstructions to visibility.
 TC=TEMPERATURE CELSIUS

 * =Non NWS site. Station does not report precipitation (e.g. rain,
    snow, etc.), thunder, or fog.

DCZ001-MDZ009-015-VAZ040>042-051-053>054-030300-
WASHINGTON METRO

CITY           SKY/WX    TMP DP  RH WIND       PRES   REMARKS
WASHINGTON NAT CLOUDY    80  74  81 E5        29.91S
DULLES         MOCLDY    73  73 100 CALM      29.91S
ANDREWS AFB    CLOUDY    75  74  96 SE3       29.90F
QUANTICO       MOCLDY    82  73  74 NE5       29.91R
COLLEGE PARK*  CLOUDY    75  75 100 CALM      29.89F
LEESBURG*      PTCLDY    73  73 100 CALM      29.93S
GAITHERSBURG*  PTCLDY    72  70  94 CALM      29.95F VSB 1

$$

MDZ006>007-011-014-030300-
BALTIMORE METRO

CITY           SKY/WX    TMP DP  RH WIND       PRES   REMARKS
BWI AIRPORT    CLOUDY    73  72  96 CALM      29.90F
MD SCIENCE CTR   N/A     74  71  91 MISG      29.91R
MARTIN STATE   MOCLDY    75  73  94 CALM      29.91R
ANNAPOLIS      CLOUDY    76  72  87 CALM      29.89F
FORT MEADE*    CLOUDY    72  70  94 CALM      29.92F

$$

MDZ012-015-019>023-030300-
MARYLAND EASTERN SHORE

CITY           SKY/WX    TMP DP  RH WIND       PRES   REMARKS
OCEAN CITY     CLEAR     82  76  81 SW8       29.90S
SALISBURY      PTCLDY    82  73  74 SW7       29.90S
BAY BRIDGE AP*   N/A     77  73  88 E3        29.90F
CAMBRIDGE*     CLOUDY    82  72  69 NW9       29.90R

$$

MDZ017>025-030300-
SOUTHERN MARYLAND

CITY           SKY/WX    TMP DP  RH WIND       PRES   REMARKS
PATUXENT RIVER MOCLDY    85  69  58 SW9       29.90R
ST INIGOES     MOCLDY    85  69  58 SW8       29.89S
LEONARDTOWN*   CLOUDY    82  68  61 SW3       29.92R

$$

MDZ003>005-030300-
NORTH CENTRAL MARYLAND

CITY           SKY/WX    TMP DP  RH WIND       PRES   REMARKS
FREDERICK*     PTCLDY   N/A N/A N/A CALM      29.94S
HAGERSTOWN APT PTCLDY    77  67  71 SW5       29.92R
WESTMINSTER*   PTCLDY    72  70  94 S3        29.93S

$$

MDZ501>502-030300-
WESTERN MARYLAND

CITY           SKY/WX    TMP DP  RH WIND       PRES   REMARKS
OAKLAND*       MOCLDY    64 N/A N/A SW7       30.06R
CUMBERLAND*    MOCLDY    79  68  69 SW3       29.98R

$$

VAZ025>031-030300-
SHENANDOAH VALLEY

CITY           SKY/WX    TMP DP  RH WIND       PRES   REMARKS
WINCHESTER*    CLOUDY    77  68  73 CALM      29.93R
STAUNTON*      CLOUDY    79  64  60 SW8       30.01R

$$

WVZ021-048>050-054>055-030300-
EASTERN WEST VIRGINIA PANHANDLE

CITY           SKY/WX    TMP DP  RH WIND       PRES   REMARKS
MARTINSBURG    CLOUDY    74  67  78 NE3       29.93R
PETERSBURG*    NOT AVBL

$$

VAZ036>039-050-030300-
CENTRAL FOOTHILLS

CITY           SKY/WX    TMP DP  RH WIND       PRES   REMARKS
CHARLOTTESVILL CLOUDY    80  71  74 CALM      29.94R
ORANGE*        MOCLDY    77  72  83 CALM      29.94R

$$

VAZ055>057-030300-
NORTH AND CENTRAL PIEDMONT

CITY           SKY/WX    TMP DP  RH WIND       PRES   REMARKS
FREDERICKSBRG* PTCLDY    82  72  71 CALM      29.90S
STAFFORD*      PTCLDY    77  77  99 CALM      29.95S

$$

NCZ024-NYZ072-PAZ021-071-VAZ022-071-030300-
OTHER REGIONAL OBSERVATIONS

CITY           SKY/WX    TMP DP  RH WIND       PRES   REMARKS
NEW YORK CITY  PTCLDY    84  69  60 W10G17    29.84S
PHILADELPHIA   CLOUDY    76  71  85 SW12      29.90R
PITTSBURGH     PTCLDY    70  65  84 SW3       29.97R
ROANOKE        CLOUDY    78  67  68 W3        30.03R
RICHMOND       MOCLDY    83  70  64 S5        29.92S
RALEIGH        PTCLDY    77  68  73 SW8       30.00S

$$

ANZ530>537-030300-
MARINE OBSERVATIONS

STATION/POSITION TIME  TEMP    WIND        PRES
                       AIR SEA DIR/SP/G
                 (UTC) (F)     (DEG/KT/KT) (MB)
THOMAS PT LIGHT  0200   78 80   CALM  /  1 1013.4F
BALT KEY BRIDGE  0200          260/  3/  3 1012.3F
COVE POINT       0200   84     250/  7/  9 1012.4R
LEWISETTA        0200   85 82  240/  6/  8 1012.2F
SOLOMONS ISLAND  0200      82                N/A
PINEY POINT      0200          250/  3/  5   N/A

$$

Close this window


The National Weather Service prepares its forecasts and other services in collaboration with agencies like the US Geological Survey, US Bureau of Reclamation, US Army Corps of Engineers, Natural Resource Conservation Service, National Park Service, ALERT Users Group, Bureau of Indian Affairs, and many state and local emergency managers across the country. For details, please click here.

National Weather Service
(Baltimore/Washington) Sterling Weather Forecast Office
43858 Weather Service Rd.
Sterling, VA 20166
(703) 996-2200
Page last modified: 3-Sep-2014 2:10 AM
Disclaimer
Credits
Glossary
Privacy Policy
About Us
Career Opportunities